Denver, CO

10:05 PM MDT on June 28, 2017 (GMT -0600)
Front Range

Weather History for KFTG - January, 2013

Change the Weather History Date:

Sunday, January 20, 2013

  Actual Average (KBKF) Record (KBKF)
Temperature  
Mean Temperature 34 °F -  
Max Temperature 44 °F 44 °F 69 °F (2005)
Min Temperature 23 °F 21 °F 8 °F (2011)
Degree Days  
Heating Degree Days 32    
Moisture  
Dew Point 19 °F    
Average Humidity 66    
Maximum Humidity 86    
Minimum Humidity 31    
Precipitation  
Precipitation 0.00 in - - ()
Sea Level Pressure  
Sea Level Pressure 30.17 in    
Wind  
Wind Speed 6 mph (SSW)    
Max Wind Speed 14 mph    
Max Gust Speed -    
Visibility 11 miles    
Events      
Averages and records for this station are not official NWS values.
T = Trace of Precipitation, MM = Missing Value Source: NWS Daily Summary

Daily Weather History Graph

Daily Weather History Graph

Search for Another Location

Airport or City:

Trip Planner

Search our weather history database for the weather conditions in past years. The results will help you decide how hot, cold, wet, or windy it might be!

Date:

Astronomy

Jan. 20, 2013 Rise Set
Actual Time 7:15 AM MST 5:03 PM MST
Civil Twilight 6:45 AM MST 5:33 PM MST
Nautical Twilight 6:12 AM MST 6:06 PM MST
Astronomical Twilight 5:40 AM MST 6:38 PM MST
Moon 12:06 PM MST (1/20) 1:49 AM MST (1/20)
Length of Visible Light 10h 47m
Length of Day
9h 48m
Waxing Gibbous, 67% of the Moon is Illuminated
Jan 20
Waxing Gibbous
Jan 26
Full
Feb 3
Last Quarter
Feb 10
New
Feb 17
First Quarter

Hourly Weather History & Observations

Time (MST) Temp. Windchill Dew Point Humidity Pressure Visibility Wind Dir Wind Speed Gust Speed Precip Events Conditions
12:05 AM 32.0 °F - 17.6 °F 55% 30.14 in 10.0 mi Calm Calm - N/A   Clear
12:25 AM 33.8 °F 28.6 °F 15.8 °F 48% 30.14 in 10.0 mi SW 5.8 mph - N/A   Clear
12:45 AM 33.8 °F 30.8 °F 15.8 °F 48% 30.14 in 10.0 mi SW 3.5 mph - N/A   Clear
1:05 AM 30.2 °F 22.6 °F 17.6 °F 60% 30.14 in 10.0 mi West 8.1 mph - N/A   Clear
1:26 AM 28.4 °F 19.1 °F 17.6 °F 64% 30.13 in 10.0 mi West 10.4 mph - N/A   Clear
1:45 AM 26.6 °F 16.2 °F 19.4 °F 74% 30.14 in 10.0 mi West 11.5 mph - N/A   Clear
2:06 AM 28.4 °F 18.5 °F 19.4 °F 69% 30.14 in 10.0 mi West 11.5 mph - N/A   Clear
2:26 AM 28.4 °F 19.1 °F 19.4 °F 69% 30.14 in 10.0 mi West 10.4 mph - N/A   Clear
2:46 AM 28.4 °F 21.2 °F 19.4 °F 69% 30.14 in 10.0 mi West 6.9 mph - N/A   Clear
3:06 AM 26.6 °F 18.2 °F 19.4 °F 74% 30.14 in 10.0 mi WSW 8.1 mph - N/A   Clear
3:25 AM 28.4 °F 20.4 °F 17.6 °F 64% 30.13 in 10.0 mi WSW 8.1 mph - N/A   Clear
3:45 AM 30.2 °F 24.3 °F 17.6 °F 60% 30.13 in 10.0 mi SW 5.8 mph - N/A   Clear
4:05 AM 30.2 °F 23.4 °F 17.6 °F 60% 30.13 in 10.0 mi WSW 6.9 mph - N/A   Clear
4:26 AM 26.6 °F 22.6 °F 17.6 °F 69% 30.12 in 10.0 mi SSW 3.5 mph - N/A   Clear
4:46 AM 26.6 °F 19.1 °F 17.6 °F 69% 30.11 in 10.0 mi SSW 6.9 mph - N/A   Clear
5:26 AM 32.0 °F - 17.6 °F 55% 30.13 in 10.0 mi Calm Calm - N/A   Clear
5:46 AM 32.0 °F 24.2 °F 17.6 °F 55% 30.14 in 10.0 mi SW 9.2 mph - N/A   Clear
6:06 AM 30.2 °F 24.3 °F 17.6 °F 60% 30.14 in 10.0 mi WSW 5.8 mph - N/A   Clear
6:26 AM 32.0 °F 25.6 °F 15.8 °F 51% 30.15 in 10.0 mi West 6.9 mph - N/A   Clear
6:46 AM 32.0 °F 27.5 °F 15.8 °F 51% 30.16 in 10.0 mi West 4.6 mph - N/A   Clear
6:55 AM 32.0 °F 24.8 °F 15.8 °F 51% 30.16 in 10.0 mi North 8.1 mph - N/A   Clear
9:50 AM 41.0 °F - 17.6 °F 39% 30.25 in 50.0 mi Calm Calm - N/A   Scattered Clouds
11:47 AM 44.6 °F 38.1 °F 15.8 °F 31% 30.25 in 50.0 mi NE 13.8 mph - N/A   Scattered Clouds
4:55 PM 35.6 °F 27.5 °F 21.2 °F 56% 30.19 in 50.0 mi East 11.5 mph - N/A   Scattered Clouds
5:50 PM 32.0 °F 24.8 °F 21.2 °F 64% 30.21 in 20.0 mi ESE 8.1 mph - N/A   Partly Cloudy
6:50 PM 30.2 °F 22.6 °F 23.0 °F 75% 30.22 in 20.0 mi East 8.1 mph - N/A   Partly Cloudy
7:56 PM 28.4 °F 20.4 °F 21.2 °F 74% 30.22 in 20.0 mi East 8.1 mph - N/A   Partly Cloudy
8:45 PM 28.4 °F 19.7 °F 23.0 °F 80% 30.21 in 10.0 mi ESE 9.2 mph - N/A   Clear
9:05 PM 26.6 °F 20.0 °F 23.0 °F 86% 30.21 in 10.0 mi ESE 5.8 mph - N/A   Clear
9:25 PM 24.8 °F 19.1 °F 21.2 °F 86% 30.21 in 10.0 mi East 4.6 mph - N/A   Clear
9:45 PM 24.8 °F 17.9 °F 21.2 °F 86% 30.21 in 10.0 mi ESE 5.8 mph - N/A   Clear
10:06 PM 24.8 °F 15.3 °F 21.2 °F 86% 30.22 in 10.0 mi ESE 9.2 mph - N/A   Clear
10:26 PM 26.6 °F 18.2 °F 21.2 °F 80% 30.21 in 10.0 mi SE 8.1 mph - N/A   Clear
10:46 PM 24.8 °F 17.9 °F 21.2 °F 86% 30.21 in 10.0 mi SSE 5.8 mph - N/A   Clear
11:06 PM 23.0 °F 14.7 °F 19.4 °F 86% 30.21 in 10.0 mi SSE 6.9 mph - N/A   Clear
11:25 PM 23.0 °F 13.1 °F 19.4 °F 86% 30.20 in 10.0 mi SSW 9.2 mph - N/A   Clear
11:45 PM 28.4 °F 18.5 °F 19.4 °F 69% 30.20 in 10.0 mi SW 11.5 mph - N/A   Clear